Flight Information

DEPARTURE
KALISPELL, MT
Elevation:
2976
Runways:
2/20 - 9007x150 - ASPH-G
12/30 - 3510x75 - ASPH-G
ATIS:
132.625
Ground:
121.6
Tower:
GLACIER TOWER 124.55
DESTINATION
,
Elevation:
TPA:
1000 (est.)


6351.2 NM71° True-18° Var53° HDG

Flight Plan:
(click to file on line)

1. Type
2. Aircraft Identification
3. Aircraft Type / Special Equipment
4. True Airspeed
kts
5. Departure Airport
(ICAO code)
6. Arriving Airport
(ICAO code)
7. Cruising Altitude
ft
8. Alternate Airport
(ICAO code)
9. Route of Flight
10. Remarks


00:00:00 Departure ATIS: Destination ATIS:

Clearance Limit:
Route:
Altitude: Expect in minutes
Frequency:
Transponder: (7500 Hijack / 7600 Lost Comms / 7700 Emergency)


KGPI 261255Z AUTO 30004KT 10SM CLR 08/05 A3034 RMK AO2 SLP270 T00780050
Time: 2022-06-26T12:55:00Z
1656250370
Winds: 300 @ 4 kts
Visibility: 10.0 sm
Clouds (AGL): CLR
Temperature: 7.8 C
Dew Point: 5.0 C
Pressure: 30.339567 in Hgbr


Notes:

Data extracted from FAA Digital Chart Supplement. Effective: 0901Z Thursday, 27 JAN 2022 to 0900z Thursday, 24 MAR 2022
Current ATIS data is provided courtisy of PilotEdge.